This demonstration page uses our WeatherBlox Daily Observations layout. Learn more.

Left ArrowRight Arrow

36.19886, -115.1175

Hourly Observations for March 6, 2017

Temp ( °F °C ) Dew Point ( °F °C ) Humidity (%) Winds ( mph kmh ) Pressure ( in mb ) Visibility ( mi km ) Precip ( " mm )
12:53 am 00:53 Clear 46 7.8 15 -9.4 29 29 N 14 22 29.98 1015 10 16 N/A
1:53 am 01:53 Clear 45 7.2 9 -12.8 23 23 NNW 13 20 30.01 1016 10 16 N/A
2:53 am 02:53 Clear 44 6.7 6 -14.4 21 21 NNW 13 20 30.03 1017 10 16 N/A
3:53 am 03:53 Clear 43 6.1 5 -15 21 21 N 13 20 30.07 1018 10 16 N/A
4:53 am 04:53 Clear 43 6.1 5 -15 21 21 N 12 19 30.11 1020 10 16 N/A
5:53 am 05:53 Clear 40 4.4 8 -13.3 27 27 NNW 10 17 30.15 1021 10 16 N/A
6:53 am 06:53 Sunny 41 5 8 -13.3 25 25 NNW 8 13 30.19 1022 10 16 N/A
7:53 am 07:53 Sunny 46 7.8 5 -15 18 18 NNW 12 19 30.22 1023 10 16 N/A
8:53 am 08:53 Sunny 49 9.4 -1 -18.3 12 12 NNW 13 20 30.22 1024 10 16 N/A
9:53 am 09:53 Sunny 49 9.4 -2 -18.9 12 12 N N/A 30.24 1024 10 16 N/A
10:53 am 10:53 Sunny 50 10 -1 -18.3 12 12 VRB 6 9 30.24 1024 10 16 N/A
11:53 am 11:53 Sunny 52 11.1 -2 -18.9 10 10 N N/A 30.22 1023 10 16 N/A
12:53 pm 12:53 Sunny 53 11.7 -1 -18.3 11 11 N N/A 30.19 1022 10 16 N/A
1:53 pm 13:53 Sunny 54 12.2 N/A 11 11 N N/A 30.17 1022 10 16 N/A
2:53 pm 14:53 Sunny 55 12.8 N/A 10 10 SSE 12 19 30.16 1021 10 16 N/A
3:53 pm 15:53 Sunny 55 12.8 -2 -18.9 9 9 ESE 10 17 30.15 1021 10 16 N/A
4:53 pm 16:53 Sunny 54 12.2 -4 -20 9 9 ESE 10 17 30.15 1021 10 16 N/A
5:53 pm 17:53 Clear 53 11.7 -2 -18.9 10 10 ESE 6 9 30.16 1022 10 16 N/A
6:53 pm 18:53 Clear 51 10.6 -1 -18.3 11 11 E 3 6 30.19 1022 10 16 N/A
7:53 pm 19:53 Clear 51 10.6 1 -17.2 13 13 E 3 6 30.21 1023 10 16 N/A
8:53 pm 20:53 Clear 47 8.3 7 -13.9 19 19 NW 5 7 30.24 1024 10 16 N/A
9:53 pm 21:53 Clear 46 7.8 12 -11.1 25 25 NW 7 11 30.25 1024 10 16 N/A
10:53 pm 22:53 Clear 44 6.7 14 -10 30 30 NW 5 7 30.27 1025 10 16 N/A
11:53 pm 23:53 Clear 42 5.6 16 -8.9 35 35 NW 7 11 30.27 1025 10 16 N/A

Powered by AerisWeather